Overview Statistics Trail Chart Weather Telemetry Raw packets
 

This is the latest recevied weather packets stored in our database for station/object SP3ZBZ-13. If no packets are shown the sender has not sent any weather packets the latest 10 day(s).

<< 5 6 7 8 9 10 11 >>
Time Temp. Humidity Pressure Rain* Wind** Luminosity Snow
1788465229 18.33° C 73% 1008.1 hPa - - - -
1788464328 17.78° C 74% 1008.1 hPa - - - -
1788463427 17.78° C 73% 1008.2 hPa - - - -
1788462526 18.33° C 74% 1008.2 hPa - - - -
1788461625 18.33° C 74% 1008.4 hPa - - - -
1788460724 18.33° C 74% 1008.6 hPa - - - -
1788459823 18.33° C 73% 1008.6 hPa - - - -
1788458922 18.89° C 71% 1008.8 hPa - - - -
1788458021 18.89° C 69% 1008.6 hPa - - - -
1788457119 18.89° C 69% 1008.5 hPa - - 1 W/m² -
1788456219 18.89° C 68% 1008.6 hPa - - 4 W/m² -
1788455318 18.89° C 67% 1008.7 hPa - - 8 W/m² -
1788454416 18.89° C 67% 1009 hPa - - 7 W/m² -
1788453515 19.44° C 68% 1008.9 hPa - - 14 W/m² -
1788452615 19.44° C 67% 1009.1 hPa - - 37 W/m² -
1788451713 19.44° C 66% 1009.4 hPa - - 32 W/m² -
1788450813 19.44° C 65% 1009.5 hPa - - 31 W/m² -
1788449911 20° C 64% 1009.7 hPa - - 65 W/m² -
1788449011 20° C 65% 1009.7 hPa - - 96 W/m² -
1788448109 20° C 64% 1009.8 hPa - - 183 W/m² -
1788447209 20° C 68% 1009.9 hPa - - 125 W/m² -
1788446308 20° C 64% 1009.9 hPa - - 168 W/m² -
1788445407 20° C 64% 1010 hPa - - 168 W/m² -
1788444506 20° C 64% 1010.2 hPa - - 169 W/m² -
1788443605 20° C 66% 1010.4 hPa - - 235 W/m² -

* Rain since midnight (hover to see other rain measurements)
** Current wind speed in m/s (hover to see current wind gust speed)